Wind_Speed
16 17 16 15 14 15 16 17 18 19 18 20 23 26 24 26 29 31 35 35 36 37 38 36 32 30 29 27 28 27 27 27 29 30 28 27 28 26 23 23 26 31 36 37 41
14 16 16 17 17 17 17 17 18 19 22 23 24 24 26 29 30 35 37 35 37 37 36 33 30 29 27 28 27 28 28 26 29 29 27 25 26 27 25 22 23 26 34 36 39
17 17 17 17 18 18 19 21 22 21 21 21 23 25 29 32 35 37 39 38 36 36 33 30 29 27 27 29 28 29 29 29 28 27 26 24 24 27 24 23 21 24 31 36 38
20 20 20 21 22 22 21 20 21 21 22 24 26 28 32 35 36 42 41 39 36 33 30 29 30 27 27 28 29 28 29 30 27 26 27 26 26 26 27 23 24 23 26 37 38
19 19 19 19 19 20 19 19 21 24 25 28 30 29 33 38 40 39 38 37 33 30 29 29 30 28 26 28 30 28 28 29 28 27 28 29 28 28 27 27 23 25 31 34 42
19 18 18 17 18 19 20 24 26 27 28 29 31 30 37 44 40 39 36 35 31 30 31 29 27 28 28 29 30 29 29 30 30 27 26 29 29 28 27 27 25 28 30 41 45
19 19 18 18 19 22 25 27 30 32 33 34 32 33 37 43 42 37 34 31 30 33 30 28 28 29 30 32 31 31 31 30 32 31 27 28 29 29 29 29 28 26 25 30 45
21 20 20 22 23 25 26 29 32 34 37 38 34 34 38 38 40 38 31 29 30 30 29 28 29 29 31 33 34 33 32 31 33 33 29 27 30 30 29 30 25 24 27 23 30
24 24 24 25 25 27 29 32 34 37 36 36 37 39 37 36 35 34 30 29 31 30 29 30 30 31 32 33 35 35 35 34 35 34 32 29 28 29 29 28 26 23 26 21 24
28 28 29 30 29 29 31 34 35 38 39 37 40 38 37 34 33 33 31 32 30 31 31 31 32 34 36 36 36 37 37 36 35 36 34 32 27 27 28 26 28 24 22 24 21
32 33 33 33 34 36 38 37 40 39 39 39 40 37 35 31 31 33 34 32 31 31 33 33 35 36 38 37 36 36 37 37 36 37 37 35 31 27 28 27 27 26 23 21 23
36 37 37 37 37 39 40 40 41 39 40 39 39 37 34 31 34 34 33 32 32 33 35 36 37 37 36 36 35 36 37 37 37 38 39 38 35 31 28 30 28 29 26 23 23
40 40 40 41 41 41 42 42 42 41 41 40 39 37 33 33 35 34 34 34 34 34 35 36 37 39 38 36 36 37 37 38 39 39 41 41 39 33 31 30 29 29 30 28 25
40 41 42 42 42 42 42 43 43 41 41 41 38 35 33 35 34 34 33 33 33 36 37 38 40 39 38 38 39 39 39 40 40 39 40 40 41 35 33 32 31 29 30 31 29
44 44 44 45 47 47 45 43 41 39 42 40 37 34 35 37 38 37 37 38 38 39 40 41 42 41 40 40 40 41 42 41 41 42 42 41 43 38 33 34 32 31 30 31 31
46 46 48 49 49 47 44 42 42 41 43 40 38 38 39 39 39 40 41 41 41 43 42 42 42 42 43 44 45 45 43 43 42 43 45 39 43 39 37 35 35 32 31 31 32
49 49 50 50 48 47 45 45 44 43 41 40 38 39 40 40 41 42 44 44 44 46 44 45 45 46 46 47 47 45 44 45 46 46 45 41 45 40 40 37 37 35 33 32 31
52 52 52 52 49 48 47 46 44 42 39 39 40 41 41 42 44 45 46 45 46 47 48 48 50 49 48 46 46 46 44 42 45 46 48 46 45 42 41 39 39 38 36 34 33
54 54 52 50 48 49 48 47 41 38 38 39 42 44 44 43 46 48 48 48 48 47 48 52 52 51 50 49 48 47 46 43 47 49 50 47 44 42 42 42 41 41 40 37 35
56 52 50 50 50 49 48 44 40 37 38 40 43 43 43 44 47 48 50 51 50 49 50 50 52 50 50 50 49 47 48 48 48 51 53 51 47 45 43 44 44 43 42 40 38
52 50 50 48 47 48 45 40 38 37 39 43 44 45 45 47 49 50 52 49 48 48 49 48 52 51 51 50 50 49 50 49 51 53 53 53 49 47 46 45 46 44 44 42 40
49 49 46 46 44 41 38 39 40 39 40 42 45 47 48 49 50 50 49 49 49 49 50 50 54 55 53 52 51 51 52 52 52 50 51 51 51 48 47 47 46 46 45 45 45
50 49 49 45 44 41 40 39 39 40 42 46 48 48 47 48 50 50 50 49 49 52 53 52 55 56 57 55 53 55 55 55 52 52 52 51 51 48 47 45 44 45 47 48 50
51 48 44 42 41 40 41 42 42 42 45 46 46 46 46 47 48 49 48 48 50 50 52 54 55 55 57 57 57 58 58 56 55 56 51 53 49 45 42 43 44 47 50 51 51
44 45 43 41 38 40 41 42 42 40 40 38 40 41 43 45 45 45 46 48 48 49 51 55 56 57 58 57 58 57 54 52 53 51 52 47 47 42 42 43 47 51 51 50 50
45 44 42 42 42 46 44 37 34 37 39 36 36 37 40 40 42 42 44 45 46 47 52 56 59 59 59 56 55 53 49 50 49 47 50 48 49 42 44 47 46 45 47 49 50
44 45 41 40 40 39 39 36 32 32 33 36 32 34 36 39 40 39 39 42 47 51 56 58 56 56 55 50 51 54 47 47 47 46 47 49 43 47 47 46 46 46 47 47 48
Wind_Direction
274 273 269 267 267 272 276 282 285 287 287 293 299 302 309 318 311 310 313 311 305 304 303 305 312 313 310 312 310 311 310 309 308 307 306 303 297 295 296 294 286 256 246 243 246
277 272 267 266 270 273 280 286 287 288 290 294 298 301 307 307 306 312 313 306 302 301 302 307 310 309 307 308 311 312 313 309 310 310 309 307 304 299 296 295 289 268 245 245 242
270 270 272 275 278 283 287 289 286 285 286 289 296 299 300 303 309 313 311 307 301 301 303 306 305 302 305 308 313 314 316 311 315 315 315 313 304 299 299 295 293 283 254 244 244
268 271 274 277 282 284 285 282 282 284 287 293 298 301 304 308 310 312 309 304 301 299 302 303 300 302 305 309 312 315 316 314 318 316 315 314 306 304 301 300 287 279 268 251 242
265 271 276 275 274 274 276 278 281 288 292 298 298 306 309 308 309 306 301 299 297 297 300 298 297 299 304 307 309 312 315 312 315 315 313 314 310 307 307 306 294 281 278 263 248
265 265 264 269 273 277 280 285 287 289 290 293 297 304 309 308 305 300 298 297 295 297 296 294 294 298 303 302 306 310 312 308 307 308 311 312 312 311 310 311 309 298 281 259 245
260 259 263 266 274 283 289 290 290 292 293 293 296 302 307 307 301 297 295 294 295 296 294 294 295 297 300 299 301 305 307 305 307 309 311 309 309 312 310 310 318 307 307 279 249
258 257 261 269 278 283 288 292 295 294 294 293 296 303 305 302 298 293 290 290 292 290 290 291 292 295 298 298 299 303 304 303 305 305 306 304 307 310 308 309 316 300 294 283 254
257 260 264 269 276 284 291 295 297 295 295 296 300 304 302 298 293 289 287 290 291 290 288 289 293 295 297 299 300 299 299 301 301 301 303 303 305 307 307 305 309 312 300 301 254
261 264 269 271 278 284 291 295 298 299 296 296 298 299 298 294 290 286 288 293 291 290 289 291 294 294 295 298 299 298 298 299 299 300 300 299 299 302 302 299 304 307 307 295 273
267 270 272 276 283 288 291 297 297 298 296 295 294 293 292 287 285 285 290 290 288 290 291 291 292 295 294 294 295 297 297 296 296 297 298 297 297 296 297 295 293 297 295 294 290
267 271 275 279 283 286 291 294 295 294 291 290 288 287 286 281 286 286 288 286 283 288 290 290 292 293 295 293 293 294 294 296 294 295 295 296 294 295 293 293 290 289 291 286 283
269 274 278 282 285 287 291 294 294 292 288 287 284 284 283 283 288 286 286 283 283 286 289 290 291 293 293 292 292 294 296 294 293 291 292 292 291 291 289 288 286 284 286 283 275
272 278 281 283 285 288 289 291 289 285 284 284 281 280 280 284 285 284 286 286 285 286 290 292 293 293 293 293 293 293 292 291 290 289 288 286 289 290 285 283 282 280 280 279 274
276 278 280 282 286 287 287 285 282 280 281 285 281 281 283 285 283 285 284 286 288 289 291 293 293 293 293 293 294 292 291 290 287 286 286 287 288 287 281 278 277 275 274 274 271
277 279 282 285 285 285 283 278 277 276 278 278 276 283 286 284 286 286 286 289 291 292 293 296 296 296 295 295 294 294 292 289 287 286 284 288 284 281 281 275 272 270 272 268 268
278 281 284 284 282 281 278 275 275 275 278 276 276 283 285 288 291 289 289 290 293 293 294 294 296 296 296 295 294 294 293 290 287 287 285 281 277 280 277 274 270 267 267 265 263
279 281 282 281 279 278 274 273 272 276 274 273 277 282 289 291 289 289 289 291 293 293 293 295 295 296 295 293 293 292 290 286 285 282 282 280 277 276 275 276 269 268 267 262 259
279 280 281 277 276 275 270 269 271 274 274 274 279 286 290 289 287 288 291 293 294 295 296 296 296 296 295 294 292 292 286 283 280 279 277 278 276 273 273 273 268 265 265 263 259
275 276 274 271 270 270 267 269 275 275 275 278 283 288 289 290 290 291 292 295 296 297 298 299 298 299 296 292 289 285 283 281 278 278 277 276 273 272 270 269 267 265 264 263 259
269 270 270 267 267 267 270 272 271 274 277 281 285 286 289 291 291 293 295 298 299 299 298 298 297 296 293 288 283 280 278 278 277 275 276 277 275 272 270 268 268 266 265 264 262
261 263 264 265 264 268 273 275 276 282 284 284 286 289 290 291 292 295 298 299 300 298 297 294 292 291 288 285 281 278 278 278 277 279 276 273 268 271 271 270 271 272 272 272 268
257 258 258 264 269 274 274 277 277 280 283 286 287 289 291 293 294 297 299 298 296 296 294 291 289 289 288 286 283 281 281 280 280 277 274 275 275 276 273 270 271 271 268 266 265
252 255 260 262 264 270 273 274 277 281 285 288 291 293 293 294 295 298 297 296 295 294 291 289 289 288 287 287 286 287 286 285 283 280 280 276 278 279 278 274 269 266 265 266 267
258 260 265 272 272 267 269 273 284 287 288 295 300 299 295 295 293 293 293 295 296 295 292 289 289 288 289 290 290 289 287 285 282 282 278 280 276 276 273 270 270 270 271 271 270
267 267 265 265 267 273 280 285 283 288 296 304 307 300 295 291 290 292 294 296 296 295 292 290 290 291 292 294 292 288 289 286 285 282 280 279 275 277 272 270 271 272 270 270 271
265 268 262 265 266 278 285 284 286 293 298 305 295 287 286 285 290 295 296 295 297 293 290 290 295 297 296 294 289 290 294 287 284 283 281 278 279 271 273 273 270 269 270 270 270
Height
5818 5819 5820 5820 5819 5819 5820 5820 5820 5820 5819 5819 5818 5817 5815 5812 5810 5807 5804 5801 5798 5794 5791 5788 5786 5783 5781 5779 5777 5775 5773 5770 5768 5765 5763 5761 5758 5756 5754 5753 5752 5752 5754 5756 5760
5815 5816 5816 5816 5815 5815 5816 5816 5816 5816 5816 5814 5813 5812 5809 5807 5804 5801 5798 5794 5791 5788 5785 5782 5780 5778 5775 5774 5772 5770 5767 5765 5762 5760 5758 5757 5754 5751 5749 5747 5745 5745 5747 5749 5752
5811 5813 5813 5813 5813 5813 5812 5812 5812 5811 5810 5808 5807 5805 5804 5801 5799 5795 5791 5788 5785 5782 5779 5777 5774 5772 5770 5769 5767 5764 5762 5760 5756 5754 5752 5751 5748 5745 5743 5741 5740 5739 5740 5742 5744
5807 5807 5808 5809 5809 5809 5808 5807 5807 5807 5805 5803 5802 5801 5799 5795 5793 5788 5785 5782 5778 5776 5774 5771 5770 5768 5766 5764 5762 5759 5756 5755 5752 5750 5748 5746 5742 5740 5738 5738 5735 5733 5734 5735 5736
5801 5802 5803 5803 5803 5803 5802 5802 5802 5800 5799 5798 5796 5793 5791 5789 5785 5781 5777 5774 5771 5770 5768 5766 5765 5762 5761 5759 5757 5754 5751 5750 5748 5745 5743 5741 5737 5735 5733 5731 5730 5729 5727 5727 5729
5795 5797 5797 5797 5798 5799 5799 5798 5797 5795 5793 5790 5788 5786 5785 5783 5778 5774 5770 5768 5766 5764 5762 5760 5758 5757 5756 5754 5752 5749 5747 5745 5743 5741 5740 5736 5733 5731 5728 5724 5723 5720 5718 5715 5717
5790 5791 5792 5793 5793 5794 5793 5792 5791 5790 5788 5784 5781 5778 5776 5776 5772 5767 5763 5762 5761 5760 5757 5756 5755 5753 5751 5749 5747 5745 5742 5740 5738 5735 5734 5732 5729 5726 5723 5718 5715 5712 5709 5705 5707
5785 5786 5787 5787 5787 5787 5786 5785 5784 5782 5781 5778 5774 5770 5768 5765 5764 5762 5757 5756 5754 5753 5752 5750 5748 5747 5744 5743 5741 5740 5737 5735 5733 5730 5729 5727 5724 5721 5718 5714 5710 5707 5704 5701 5700
5779 5780 5780 5780 5780 5780 5779 5778 5777 5775 5771 5769 5767 5764 5761 5759 5757 5755 5752 5749 5748 5746 5745 5743 5742 5741 5739 5737 5736 5734 5731 5729 5727 5725 5722 5721 5718 5716 5714 5710 5707 5703 5699 5697 5696
5772 5773 5773 5773 5773 5772 5771 5770 5768 5767 5765 5761 5759 5757 5754 5753 5750 5748 5746 5744 5742 5741 5740 5738 5737 5734 5733 5731 5730 5727 5724 5722 5720 5719 5715 5714 5713 5710 5708 5705 5702 5700 5696 5694 5693
5765 5765 5765 5765 5765 5765 5764 5762 5762 5759 5756 5754 5751 5748 5746 5745 5743 5742 5740 5738 5736 5735 5734 5731 5730 5728 5726 5723 5722 5720 5717 5715 5713 5710 5708 5706 5706 5704 5701 5700 5698 5696 5694 5691 5688
5755 5756 5756 5756 5756 5755 5755 5753 5752 5750 5747 5745 5742 5741 5739 5738 5737 5735 5733 5732 5729 5728 5726 5724 5722 5720 5718 5716 5714 5712 5709 5707 5704 5702 5700 5698 5697 5697 5694 5693 5692 5689 5688 5686 5684
5745 5746 5746 5746 5746 5745 5745 5744 5742 5740 5739 5736 5735 5733 5732 5731 5729 5728 5726 5723 5722 5721 5719 5716 5715 5712 5710 5709 5706 5704 5702 5698 5696 5694 5692 5689 5688 5689 5688 5685 5684 5683 5681 5680 5679
5736 5736 5736 5736 5737 5735 5734 5734 5732 5730 5728 5728 5728 5727 5725 5723 5722 5719 5717 5717 5715 5713 5711 5709 5707 5704 5701 5699 5697 5695 5693 5689 5687 5685 5683 5681 5678 5681 5679 5677 5675 5674 5673 5672 5672
5725 5725 5726 5725 5725 5724 5724 5722 5721 5721 5717 5720 5719 5717 5715 5715 5712 5712 5710 5707 5706 5704 5703 5701 5697 5695 5692 5689 5687 5685 5682 5679 5677 5674 5673 5673 5667 5672 5671 5669 5666 5665 5664 5663 5663
5714 5715 5715 5714 5714 5713 5712 5711 5711 5712 5708 5710 5710 5708 5706 5703 5702 5701 5700 5698 5695 5694 5692 5689 5687 5685 5682 5679 5676 5674 5671 5668 5665 5663 5662 5666 5658 5662 5660 5659 5656 5655 5655 5654 5653
5703 5703 5703 5703 5703 5703 5702 5702 5702 5701 5702 5701 5699 5697 5695 5694 5693 5692 5690 5687 5685 5683 5682 5679 5677 5675 5671 5667 5665 5663 5661 5656 5652 5650 5649 5652 5647 5650 5648 5647 5646 5644 5644 5644 5643
5691 5691 5691 5691 5691 5691 5691 5691 5691 5692 5691 5690 5689 5686 5686 5685 5683 5681 5679 5676 5674 5672 5669 5668 5666 5664 5661 5658 5654 5652 5649 5647 5638 5637 5636 5636 5635 5637 5635 5635 5634 5632 5631 5632 5632
5678 5678 5678 5679 5679 5679 5679 5678 5680 5682 5681 5679 5677 5676 5676 5675 5673 5671 5668 5666 5665 5661 5660 5655 5655 5652 5650 5647 5643 5641 5636 5635 5626 5623 5619 5624 5623 5624 5622 5621 5619 5620 5619 5620 5621
5666 5665 5666 5666 5666 5667 5667 5669 5669 5670 5669 5668 5667 5667 5665 5664 5663 5660 5657 5657 5653 5651 5647 5644 5640 5640 5637 5634 5631 5627 5623 5619 5615 5609 5604 5607 5608 5608 5609 5607 5606 5606 5607 5607 5608
5651 5652 5653 5654 5655 5655 5657 5658 5658 5658 5658 5658 5657 5655 5654 5653 5651 5649 5646 5644 5641 5638 5634 5630 5628 5627 5624 5621 5617 5614 5609 5606 5601 5597 5592 5591 5595 5594 5594 5593 5593 5593 5593 5593 5593
5636 5640 5641 5642 5645 5645 5647 5646 5647 5646 5647 5647 5646 5645 5644 5641 5640 5637 5635 5631 5629 5624 5621 5618 5612 5611 5610 5606 5602 5600 5596 5591 5585 5586 5581 5577 5581 5580 5580 5580 5580 5580 5580 5579 5580
5625 5627 5628 5630 5633 5635 5635 5636 5635 5636 5636 5636 5635 5634 5633 5631 5627 5625 5623 5620 5616 5612 5607 5605 5599 5595 5593 5593 5590 5585 5582 5577 5574 5570 5568 5565 5571 5568 5568 5569 5569 5567 5565 5565 5566
5612 5614 5617 5619 5622 5624 5624 5625 5625 5625 5625 5625 5624 5623 5621 5619 5615 5612 5611 5608 5604 5600 5595 5590 5588 5585 5580 5577 5575 5571 5566 5564 5560 5554 5556 5552 5557 5555 5555 5554 5553 5551 5550 5551 5552
5599 5603 5605 5607 5611 5612 5612 5614 5614 5614 5614 5614 5614 5611 5608 5605 5603 5601 5599 5596 5592 5588 5583 5576 5573 5569 5566 5563 5557 5555 5551 5549 5545 5544 5538 5545 5538 5541 5540 5539 5538 5537 5536 5536 5536
5589 5592 5594 5597 5599 5600 5600 5604 5603 5602 5604 5603 5601 5599 5596 5594 5592 5590 5588 5584 5580 5576 5569 5564 5557 5554 5552 5549 5541 5537 5539 5535 5532 5530 5524 5525 5523 5524 5523 5522 5524 5524 5522 5521 5521
5577 5578 5580 5584 5587 5589 5592 5592 5591 5591 5592 5591 5588 5587 5585 5583 5581 5579 5576 5572 5569 5563 5555 5549 5544 5538 5535 5534 5526 5524 5528 5521 5518 5516 5511 5509 5514 5506 5508 5509 5508 5507 5506 5507 5507